Powrót do katalogu

FENGYUN 1C DEB

AktywnyPO
NORAD 29791·DEBRIS·🇨🇳 China

Wystrzelony May 10, 1999 z Taiyuan Satellite Launch Center

Loading…

Następne Przeloty (najbliższe 24 godziny)

TLE

ŚwieżeSource: Space-Track

Epoka: Sep 14, 2026, 20:36 UTC

1 29791U 99025CH  26257.85902456  .00003708  00000-0  75108-3 0  9996
2 29791  99.0291 288.0571 0036854 301.2776 239.3549 14.61548918 28757

Śledź FENGYUN 1C DEB w czasie rzeczywistym z AllMySat

Download on the App Store